Location: Barrialote
(9.9333°N, 67.3500°W)
Time: 14:23:38
(UTC+00:00)

NOSS 3-1 (A) - Pass Details

Date: 18 April 2024
Orbit: 660 x 1550 km, 63.4° (Epoch: 15 May)

Event Time Altitude Azimuth Distance (km) Brightness Sun altitude
Rises 23:07:51 0° 212° (SSW) 3,037 6.4 -7.5°
Reaches altitude 10° 23:10:14 10° 217° (SW) 2,085 5.6 -8.1°
Maximum altitude 23:14:44 54° 295° (WNW) 803 3.6 -9.2°
Drops below altitude 10° 23:19:20 10° 12° (NNE) 2,137 5.3 -10.3°
Sets 23:21:48 0° 17° (NNE) 3,121 6.1 -10.9°
